Main page
METAR-TAF:

METAR-TAF

Airports :

Whiting_Field_Naval_Air_Station_South_Airport

Milton, Florida, United States

latitude: 30-41-50N, longitude: 087-01-12W, elevation: 177 ft

Current weather observation

The report was made 1 hour and 11 minutes ago, at 08:56 UTC
Wind 7 mph from the North
Temperature 57°F
Humidity 82%
Pressure 30.05 in. Hg
Visibility: 10 miles
Clear sky

METAR: KNDZ 240856Z AUTO 36006KT 10SM CLR 14/11 A3005 RMK AO2 SLP161 T01390111 53004 $

Time: 05:07 (10:07 UTC)


TAF: missing

Weather observations and forecasts of more than 4000 airports (METAR and TAF reports).

The available stations are represented by yellow and red dots on the map.

Hover mouse over dot to see the name of the station.

Then click to see weather observations and forecasts.

To change the map : click on the green buttons with a black cross to zoom in, on the green button with a dash to zoom out, or on the green arrows for adjacent maps.


METAR-TAF: